www.pogodaiklimat.ru

Погода и климат >> Архив погоды >> Канада >> Нунавут >> Остров Хат


ПОГОДА на Острове Хат

  • Прогноз погоды на Острове Хат
  • Монитор погоды на Острове Хат

АРХИВ ПОГОДЫ на Острове Хат

Время (UTC), дата Ветер
(напр.,м/с)
 
Видим.   Явления Облачность Т
(С)
Тd
(С)
f
(%)
Тe
(С)
Тes
(С)
Комфортность P
(гПа)
Po
(гПа)
Тmin
(С)
Tmax
(С)
R
(мм)
R24
(мм)
S
(см)
09 10.07 СВ 2 н/о 10/10 50 м
[]
+3.6 +3.4 99 0 0 1007.7 1003.1
12 10.07 С 4 н/о 10/10 50 м
[]
+4.8 +4.7 99 0 0 1006.6 1002.0
15 10.07 СЗ 5 н/о 10/10 50 м
[]
+4.0 +3.5 97 -1 -1 1005.8 1001.2
18 10.07 СЗ 6 н/о 10/10 50 м
[]
+4.8 +4.2 96 -1 -1 1005.2 1000.6
21 10.07 СЗ 7 н/о 10/10 50 м
[]
+4.1 +3.8 98 -2 -2 1004.2 999.6
00 11.07 З 8 н/о 10/10 50 м
[]
+4.8 +4.7 99 -2 -2 1003.1 998.5
03 11.07 З 7 н/о 10/10 50 м
[]
+3.4 +3.3 99 -3 -3 1001.9 997.3
06 11.07 З 7 н/о 10/10 50 м
[]
+3.2 +3.1 99 -3 -3 1000.6 996.0 +3.2 +7.0
09 11.07 З 8 н/о 10/10 50 м
[]
+3.4 +3.3 99 -3 -3 999.6 995.0
12 11.07 З 8 н/о 10/10 50 м
[]
+2.9 +2.8 99 -4 -4 998.8 994.2
15 11.07 З 9 н/о 10/10 50 м
[]
+2.8 +2.7 99 -5 -5 997.7 993.1
18 11.07 З 9 н/о 10/10 50 м
[]
+3.7 +3.6 99 -3 -3 997.3 992.7
21 11.07 З 9 н/о 9/9 50 м
[]
+5.4 +5.3 99 -1 -1 996.9 992.3
00 12.07 З 8 н/о 5/5 1500 м
[]
+5.4 +4.8 96 -0 0 996.2 991.6
03 12.07 З 7 н/о 10/10 1000 м
[]
+3.5 +3.2 98 -3 -3 995.7 991.1
06 12.07 З 7 н/о 10/10 100 м
[]
+2.9 +2.8 99 -4 -4 995.0 990.4 +2.6 +6.8
09 12.07 З 6 н/о 10/10 50 м
[]
+2.2 +2.1 99 -4 -4 994.6 990.0
12 12.07 З 6 н/о 10/10 50 м
[]
+2.1 +2.0 99 -4 -4 994.9 990.3
15 12.07 З 6 н/о 10/10 50 м
[]
+2.8 +2.7 99 -3 -3 995.3 990.7
18 12.07 З 6 н/о 10/10 50 м
[]
+3.2 +3.1 99 -3 -3 995.6 991.0
21 12.07 З 7 н/о 10/10 50 м
[]
+3.0 +2.8 99 -3 -3 996.0 991.4
00 13.07 З 7 н/о 10/10 50 м
[]
+3.7 +3.4 98 -2 -2 996.3 991.7
03 13.07 З 6 н/о 10/10 50 м
[]
+2.4 +2.3 99 -4 -4 996.4 991.8
06 13.07 З 6 н/о 10/10 50 м
[]
+2.7 +2.6 99 -4 -4 997.0 992.4 +1.8 +4.5
09 13.07 З 6 н/о 10/10 50 м
[]
+2.0 +1.9 99 -4 -4 997.0 992.4
12 13.07 З 8 н/о 10/10 50 м
[]
+2.0 +1.9 99 -5 -5 997.4 992.8
15 13.07 З 6 н/о 9/9 50 м
[]
+3.3 +3.2 99 -3 -3 997.9 993.3
18 13.07 З 5 н/о 9/9 50 м
[]
+3.7 +3.3 97 -2 -1 998.6 994.0
21 13.07 З 7 н/о 10/10 50 м
[]
+2.4 +2.1 98 -4 -4 999.0 994.4
00 14.07 СЗ 6 н/о 10/10 100 м
[]
+2.0 +1.8 99 -4 -4 1000.3 995.7
03 14.07 СЗ 6 н/о 10/10 50 м
[]
+2.7 +2.6 99 -4 -4 1001.5 996.9
06 14.07 З 7 н/о 10/10 200 м
[]
+3.6 +3.3 98 -3 -3 1001.8 997.2 +1.7 +4.8
09 14.07 З 7 н/о 10/10 50 м
[]
+2.6 +2.5 99 -4 -4 1002.2 997.6
12 14.07 СЗ 6 н/о 10/10 50 м
[]
+2.6 +2.5 99 -3 -3 1003.2 998.6
15 14.07 З 7 н/о 10/10 50 м
[]
+3.6 +3.5 99 -3 -3 1004.2 999.6
18 14.07 З 5 н/о 9/9 50 м
[]
+5.2 +5.2 100 0 +1 1005.1 1000.5
21 14.07 З 6 н/о 10/10 1000 м
[]
+6.0 +4.7 91 +1 +1 1006.0 1001.4
00 15.07 З 5 н/о 10/10 1500 м
[]
+6.7 +5.3 91 +2 +2 1006.4 1001.8
03 15.07 ЮЗ 4 н/о 10/10 50 м
[]
+3.3 +3.0 98 -2 -2 1006.0 1001.4
06 15.07 ЮЗ 5 н/о 10/10 50 м
[]
+2.4 +2.3 99 -3 -3 1006.0 1001.4 +2.3 +7.7
09 15.07 Ю 5 н/о 10/10 1000 м
[]
+4.1 +4.0 99 -1 -1 1005.5 1000.9
12 15.07 ЮЗ 6 н/о 5/5 50 м
[]
+4.1 +4.0 99 -2 -1 1004.6 1000.0
15 15.07 ЮЗ 5 н/о 10/10 100 м
[]
+5.2 +5.1 99 +1 +1 1004.6 1000.0
18 15.07 ЮЗ 5 н/о 10/10 50 м
[]
+5.1 +5.0 99 0 0 1004.2 999.6
21 15.07 З 6 н/о 10/10 50 м
[]
+4.8 +4.5 98 -1 -1 1004.3 999.7
00 16.07 З 5 н/о 10/10 50 м
[]
+5.4 +4.5 94 +1 +1 1004.6 1000.0
03 16.07 З 3 н/о 10/10 300 м
[]
+3.7 +3.0 95 -0 -0 1004.8 1000.2
06 16.07 ЮЗ 2 н/о 10/10 100 м
[]
+2.9 +2.7 99 -1 -1 1004.8 1000.2 +2.4 +7.4
09 16.07 ЮЗ 3 н/о 9/9 50 м
[]
+1.7 +1.6 99 -3 -3 1004.5 999.9
12 16.07 ЮЗ 4 н/о ясно +2.1 +2.0 99 -3 -2 1003.9 999.3
15 16.07 Ю 5 н/о 5/5 1500 м
[]
+6.1 +4.5 89 +2 +4 1002.5 997.9
18 16.07 Ю 8 н/о 9/9 50 м
[]
+5.6 +5.5 99 -0 0 999.6 995.0
21 16.07 Ю 10 н/о 5/5 50 м
[]
+6.1 +6.0 99 -0 0 996.7 992.1
00 17.07 З 8 н/о 10/10 50 м
[]
+5.5 +5.3 99 -0 -0 995.3 990.7
03 17.07 З 8 н/о 10/10 50 м
[]
+3.5 +3.5 100 -3 -3 996.7 992.1

 

Местоположение метеостанции Остров Хат (Нунавут, Канада): широта 68.32 долгота -100.00 высота над уровнем моря 36 м.

В архиве по умолчанию представлена погода на Острове Хат за последнюю неделю. Архивные данные за месяц целиком и за предыдущие месяцы, начиная с января 2011 года, Вы можете получить, выбрав интересующий диапазон дат из раскрывающегося списка и нажав кнопку "Ввод!".


*Определитесь, кто Вы:
робот инопланетянин человек

Внимание! Время в таблицах - всемирное. Для получения местного времени необходимо прибавить поправку, которая равна -6 ч.

Смотрите также архив погоды в соседних городах и на ближайших метеорологических станциях:

Погода в Джойа Хейвен (Нунавут, Канада) (173 км)
Погода в Кеймбридж-Бее (Нунавут, Канада) (223 км)
Погода в Кембридж Бэй (Нунавут, Канада) (223 км)
Погода в Шеперд-Бее (Нунавут, Канада) (273 км)
Погода в Талойоаке (Нунавут, Канада) (291 км)
Погода в Глеичене (Альберта, Канада) (291 км)
Погода на Мысе Пил-Вест (Нунавут, Канада) (325 км)
Погода на Озере Робертсон (Нунавут, Канада) (373 км)
Погода в Кугааруке (Нунавут, Канада) (417 км)
Погода в Кам Фор (Нунавут, Канада) (421 км)

Пояснения к столбцам:

Ветер - указаны скорость ветра в м/с - средняя за 10 мин, порывы в срок и между сроками (в фигурных скобках) и направление, откуда дует ветер: С - северный, СВ - северо-восточный, В - восточный, ЮВ - юго-восточный, Ю - южный, ЮЗ - юго-западный, З - западный, СЗ - северо-западный.
Видимость - горизонтальная дальность видимости в метрах или километрах. При видимости от 1 до 10 км при отсутствии осадков обычно наблюдается дымка, при ухудшении видимости до 1 км и менее - туман. В сухую погоду видимость может ухудшаться дымом, пылью или мглою.
Явления - указаны атмосферные явления, наблюдавшиеся в срок или в последний час перед сроком; фигурными скобками обозначены явления, наблюдавшиеся между сроками (за 1-3 часа до срока); квадратными скобками обозначены град или гололедные отложения с указанием их диаметра в мм.
Облачность - указаны через наклонную черту общая и нижняя облачность в баллах и высота нижней границы облаков в метрах; квадратными скобками обозначены формы облаков: Ci - перистые, Cs - перисто-слоистые, Cc - перисто-кучевые, Ac - высококучевые, As - высокослоистые, Sc - слоисто-кучевые, Ns - слоисто-дождевые, Cu - кучевые, Cb - кучево-дождевые. Подробнее классификацию облаков см. в Атласе облаков (PDF).
T - Температура воздуха - температура, измеренная на высоте 2 м над землей.
Td - Температура точки росы - температура, при понижении до которой содержащийся в воздухе водяной пар достигнет насыщения.
f - Относительная влажность воздуха - влажноcть воздуха, измеренная на высоте 2 м над землей.
Te - Эффективная температура - температура, которую ощущает одетый по сезону человек в тени. Характеристика душности погоды. При расчете учитывается влияние влажности воздуха и скорости ветра на теплоощущения человека.
Tes - Эффективная температура на солнце - температура, которую ощущает человек, с поправкой на солнечный нагрев. Характеристика знойности погоды. Зависит от высоты солнца над горизонтом, облачности и скорости ветра. Ночью, в пасмурную погоду, а также при ветре 12 м/с и более поправка равна нулю.
P - Атмосферное давление - приведенное к уровню моря атмосферное давление.
Po - Атмосферное давление - измеренное на уровне метеостанции атмосферное давление.
Tmin - Минимальная температура - минимум температуры воздуха на высоте 2 м над землей.
Tmax - Максимальная температура - максимум температуры воздуха на высоте 2 м над землей.
R - Количество осадков - Количество выпавших осадков за период времени, мм. При наведении курсора мыши на число - период времени, за который выпало указанное количество осадков.
R24 - Количество осадков - Количество выпавших осадков за 24 часа, мм.
S - Снежный покров - Высота снежного покрова, см. При наведении курсора мыши на число - состояние снежного покрова и степень покрытия местности в баллах.